| time (UTC) | temp C | wind direction | speed KPH | gust KPH | rain 1hr cm | rain 24hr cm | rain mn cm | humidity % | barometer mb |
| 20260504002921 | 15 | 270 | 3.2 | 6.4 | 0.00 | 0.00 | 0.00 | 62 | 1020.4 |
| 20260504001921 | 15 | 270 | 3.2 | 6.4 | 0.00 | 0.00 | 0.00 | 62 | 1020.5 |
| 20260504000921 | 15 | 270 | 3.2 | 6.4 | 0.00 | 0.00 | 0.00 | 62 | 1020.5 |
| 20260503235921 | 15 | 270 | 3.2 | 6.4 | 0.00 | 0.00 | 0.00 | 61 | 1020.6 |
| 20260503234921 | 15 | 276 | 4.8 | 9.7 | 0.00 | 0.00 | 0.00 | 62 | 1020.6 |
| 20260503233924 | 15 | 270 | 3.2 | 6.4 | 0.00 | 0.00 | 0.00 | 60 | 1020.7 |
| 20260503232921 | 15 | 270 | 3.2 | 6.4 | 0.00 | 0.00 | 0.00 | 59 | 1020.7 |
| 20260503231821 | 15 | 280 | 3.2 | 6.4 | 0.00 | 0.00 | 0.00 | 61 | 1020.7 |
| 20260503230821 | 16 | 281 | 3.2 | 9.7 | 0.00 | 0.00 | 0.00 | 61 | 1020.6 |
| 20260503225821 | 16 | 300 | 6.4 | 14.5 | 0.00 | 0.00 | 0.00 | 61 | 1020.5 |
| 20260503224821 | 16 | 297 | 6.4 | 9.7 | 0.00 | 0.00 | 0.00 | 61 | 1020.6 |
| 20260503223821 | 16 | 270 | 3.2 | 6.4 | 0.00 | 0.00 | 0.00 | 59 | 1020.6 |
| 20260503222821 | 16 | 285 | 3.2 | 8.0 | 0.00 | 0.00 | 0.00 | 59 | 1020.6 |
| 20260503221821 | 16 | 290 | 3.2 | 9.7 | 0.00 | 0.00 | 0.00 | 58 | 1020.3 |
| 20260503220821 | 16 | 259 | 3.2 | 6.4 | 0.00 | 0.00 | 0.00 | 57 | 1020.4 |
| 20260503215821 | 16 | 279 | 3.2 | 6.4 | 0.00 | 0.00 | 0.00 | 57 | 1020.5 |
| 20260503214821 | 16 | 282 | 4.8 | 6.4 | 0.00 | 0.00 | 0.00 | 56 | 1020.2 |
| 20260503213822 | 16 | 270 | 3.2 | 9.7 | 0.00 | 0.00 | 0.00 | 56 | 1020.2 |
| 20260503212721 | 16 | 270 | 3.2 | 6.4 | 0.00 | 0.00 | 0.00 | 56 | 1020.2 |
| 20260503211721 | 17 | 282 | 3.2 | 8.0 | 0.00 | 0.00 | 0.00 | 56 | 1020.0 |
| 20260503210721 | 17 | 280 | 3.2 | 6.4 | 0.00 | 0.00 | 0.00 | 55 | 1020.2 |
| 20260503205721 | 17 | 288 | 3.2 | 8.0 | 0.00 | 0.00 | 0.00 | 55 | 1020.1 |
| 20260503204721 | 17 | 270 | 3.2 | 6.4 | 0.00 | 0.00 | 0.00 | 55 | 1020.2 |
| 20260503203721 | 17 | 270 | 3.2 | 6.4 | 0.00 | 0.00 | 0.00 | 54 | 1020.2 |
| 20260503202721 | 17 | 270 | 3.2 | 4.8 | 0.00 | 0.00 | 0.00 | 54 | 1020.1 |
| 20260503201721 | 18 | 289 | 3.2 | 6.4 | 0.00 | 0.00 | 0.00 | 54 | 1020.1 |
| 20260503200721 | 18 | 270 | 3.2 | 9.7 | 0.00 | 0.00 | 0.00 | 52 | 1020.0 |
| 20260503195721 | 18 | 295 | 3.2 | 8.0 | 0.00 | 0.00 | 0.00 | 53 | 1019.8 |
| 20260503194721 | 18 | 286 | 3.2 | 6.4 | 0.00 | 0.00 | 0.00 | 53 | 1019.9 |
| 20260503193621 | 18 | 291 | 3.2 | 8.0 | 0.00 | 0.00 | 0.00 | 53 | 1019.8 |
| 20260503192621 | 18 | 305 | 4.8 | 9.7 | 0.00 | 0.00 | 0.00 | 53 | 1019.5 |
| 20260503191621 | 18 | 299 | 3.2 | 8.0 | 0.00 | 0.00 | 0.00 | 52 | 1019.5 |
| 20260503190621 | 18 | 291 | 3.2 | 6.4 | 0.00 | 0.00 | 0.00 | 52 | 1019.3 |
| 20260503185621 | 19 | 292 | 3.2 | 6.4 | 0.00 | 0.00 | 0.00 | 51 | 1019.2 |
| 20260503184621 | 19 | 289 | 3.2 | 6.4 | 0.00 | 0.00 | 0.00 | 51 | 1019.1 |
| 20260503183721 | 19 | 304 | 3.2 | 8.0 | 0.00 | 0.00 | 0.00 | 51 | 1018.9 |
| 20260503182607 | 19 | 307 | 4.8 | 9.7 | 0.00 | 0.00 | 0.00 | 51 | 1018.8 |
| 20260503181606 | 20 | 305 | 6.4 | 11.3 | 0.00 | 0.00 | 0.00 | 50 | 1018.7 |
| 20260503180607 | 20 | 306 | 6.4 | 12.9 | 0.00 | 0.00 | 0.00 | 49 | 1018.6 |
| 20260503175606 | 20 | 310 | 4.8 | 9.7 | 0.00 | 0.00 | 0.00 | 48 | 1018.5 |
| 20260503174606 | 20 | 293 | 8.0 | 14.5 | 0.00 | 0.00 | 0.00 | 47 | 1018.4 |
| 20260503174106 | 21 | 296 | 8.0 | 17.7 | 0.00 | 0.00 | 0.00 | 47 | 1018.5 |
| 20260503173606 | 21 | 298 | 6.4 | 16.1 | 0.00 | 0.00 | 0.00 | 46 | 1018.4 |
| 20260503173112 | 21 | 284 | 8.0 | 14.5 | 0.00 | 0.00 | 0.00 | 45 | 1018.4 |
| 20260503172506 | 21 | 291 | 9.7 | 14.5 | 0.00 | 0.00 | 0.00 | 45 | 1018.3 |
| 20260503172008 | 22 | 279 | 9.7 | 22.5 | 0.00 | 0.00 | 0.00 | 44 | 1018.3 |
| 20260503171508 | 22 | 282 | 8.0 | 14.5 | 0.00 | 0.00 | 0.00 | 44 | 1018.4 |
| 20260503171007 | 22 | 278 | 9.7 | 22.5 | 0.00 | 0.00 | 0.00 | 44 | 1018.3 |
| 20260503170506 | 22 | 270 | 8.0 | 19.3 | 0.00 | 0.00 | 0.00 | 44 | 1018.4 |
| 20260503150906 | 22 | 250 | 17.7 | 37.0 | 0.00 | 0.00 | 0.00 | 44 | 1018.4 |